Date,TemperatureHighF,TemperatureAvgF,TemperatureLowF,DewpointHighF,DewpointAvgF,DewpointLowF,HumidityHigh,HumidityAvg,HumidityLow,PressureMaxIn,PressureMinIn,WindSpeedMaxMPH,WindSpeedAvgMPH,GustSpeedMaxMPH,PrecipitationSumIn
2013-1-1,31.1,24.6,14.4,25.6,20.0,11.8,93,83,63,30.24,30.13,6,2,10,0.00
2013-1-2,22.2,14.5,7.2,14.6,9.2,3.5,91,80,67,30.33,30.23,10,6,14,0.00
2013-1-3,29.1,22.7,13.8,25.4,17.2,5.9,89,79,69,30.34,30.23,16,9,24,0.00
2013-1-4,27.3,20.9,12.9,22.8,16.8,9.5,92,84,76,30.36,30.27,22,14,35,0.00
2013-1-5,34.1,27.8,20.7,29.8,23.9,18.2,93,85,76,30.38,30.13,15,8,21,0.00
2013-1-6,35.0,30.6,25.3,31.7,27.0,21.6,91,87,78,30.40,30.02,18,11,24,0.00
2013-1-7,33.7,26.8,17.7,26.1,22.7,16.5,95,85,72,30.48,30.24,17,9,25,0.00
2013-1-8,38.3,32.2,27.0,29.5,26.4,23.1,86,79,68,30.32,30.21,14,8,19,0.00
2013-1-9,40.5,37.9,36.1,33.2,30.8,29.3,76,75,75,30.19,30.17,14,11,18,0.00
2013-1-10,39.2,36.3,27.8,37.0,30.0,22.8,96,78,69,30.58,30.11,11,6,22,0.55
2013-1-11,54.7,49.4,38.6,52.3,46.9,36.8,98,91,83,30.10,29.78,20,12,28,0.34
2013-1-12,58.4,52.0,41.2,51.0,47.8,39.6,96,86,74,29.99,29.84,17,8,21,0.38
2013-1-13,40.6,33.1,21.1,39.3,31.7,17.6,97,95,86,30.25,29.82,20,7,23,0.70
2013-1-16,34.7,32.5,27.2,28.2,23.6,18.5,83,70,54,30.12,29.97,20,14,28,0.00
2013-1-17,35.9,30.3,21.0,28.6,23.6,14.5,92,76,56,30.44,30.12,10,4,18,0.00
2013-1-18,37.8,31.4,19.2,27.3,22.2,14.7,85,69,57,30.52,30.11,24,14,35,0.00
2013-1-19,47.5,41.8,37.5,36.6,31.9,27.3,79,68,60,30.11,29.82,23,17,38,0.01
2013-1-20,40.7,22.2,16.3,31.8,13.0,9.2,78,68,49,30.32,29.84,28,6,42,0.00
2013-1-21,17.9,12.4,5.7,9.4,2.7,-4.1,77,65,55,30.32,30.18,19,12,33,0.00
2013-1-22,11.8,6.6,1.4,-1.4,-3.6,-5.4,73,63,49,30.47,30.32,16,10,31,0.00
2013-1-23,18.4,13.5,7.8,14.8,5.1,-1.4,89,69,53,30.44,30.20,14,9,26,0.00
2013-1-24,19.3,14.1,7.2,14.7,6.6,3.1,90,73,49,30.72,30.27,20,4,24,0.00
2013-1-25,24.8,20.3,17.0,21.5,15.0,8.1,91,80,66,30.53,30.10,11,6,17,0.00
2013-1-26,29.0,24.7,21.9,21.7,19.8,17.6,89,81,71,30.51,30.16,7,2,14,0.00
2013-1-27,33.8,26.5,21.4,32.5,21.7,16.8,95,82,74,30.52,30.11,18,7,22,0.00
2013-1-28,48.8,44.4,34.1,48.5,44.0,32.8,100,98,95,30.12,29.97,17,9,25,0.10
2013-1-29,58.6,55.1,46.5,56.8,54.2,46.5,100,97,93,30.00,29.42,20,14,28,0.87
2013-1-30,59.4,44.9,27.8,57.3,43.5,24.3,99,95,86,29.53,29.22,25,11,35,1.12
2013-1-31,27.7,18.1,8.9,24.6,12.8,3.6,88,79,69,30.14,29.53,24,17,36,0.00
2013-2-1,8.8,6.2,3.6,3.9,1.2,-1.4,81,80,78,30.37,30.14,19,16,31,0.00
2013-2-5,29.8,26.7,17.8,28.6,24.1,16.4,97,90,76,30.10,29.90,13,6,19,0.00
2013-2-6,37.2,29.8,23.7,25.8,22.7,18.2,90,75,53,30.35,30.10,8,4,13,0.02
2013-2-7,43.2,34.0,28.0,33.7,29.0,24.7,97,82,68,30.28,29.86,10,4,16,0.11
2013-2-8,33.6,30.7,27.1,32.8,26.8,21.7,98,86,73,30.44,29.86,18,7,24,0.00
2013-2-9,34.4,27.5,20.8,26.2,22.6,17.8,95,82,69,30.50,30.27,13,5,16,0.00
2013-2-10,48.2,38.7,30.8,46.6,33.4,24.0,95,81,70,30.27,29.68,18,11,26,0.11
2013-2-11,49.2,36.4,30.2,47.0,29.6,23.0,93,76,70,30.06,29.65,28,19,50,0.34
2013-2-12,32.9,29.6,27.0,26.3,23.7,21.3,84,79,72,30.18,30.05,15,8,29,0.00
2013-2-13,43.1,35.7,22.6,31.4,28.4,21.4,95,76,59,29.93,29.81,12,6,18,0.00
2013-2-14,34.5,34.2,33.8,31.6,31.2,30.9,90,89,88,29.86,29.85,8,5,12,0.00
2013-2-15,31.6,26.5,22.2,26.6,20.3,16.4,93,78,60,30.25,30.10,14,4,20,0.00
2013-2-16,23.9,19.1,13.4,19.6,14.2,7.2,90,81,64,30.23,30.15,8,4,21,0.00
2013-2-17,27.5,20.2,11.9,16.1,11.8,9.3,90,71,48,30.33,30.22,10,5,14,0.00
2013-2-18,51.6,38.2,24.0,43.3,28.7,13.2,90,69,59,30.24,29.57,24,15,40,0.15
2013-2-19,44.7,21.3,14.2,42.5,17.2,8.8,93,84,76,30.17,29.53,24,18,39,0.27
2013-2-20,21.7,16.8,10.9,17.6,12.8,7.5,88,84,79,30.42,30.17,16,9,26,0.00
2013-2-21,26.2,23.0,19.6,20.6,18.4,15.4,88,82,77,30.47,30.17,13,6,21,0.00
2013-2-22,33.8,27.7,20.4,32.6,25.8,17.2,98,92,81,30.17,29.94,17,9,27,0.03
2013-2-23,29.0,26.6,24.8,24.2,21.3,19.0,87,80,68,30.05,29.99,14,10,24,0.00
2013-2-24,36.4,28.3,19.9,24.8,21.8,17.7,91,77,60,30.24,30.04,11,5,20,0.00
2013-2-25,40.2,32.7,25.5,29.7,26.2,22.0,90,77,61,30.28,30.08,8,4,12,0.00
2013-2-26,33.4,32.3,31.0,32.6,29.2,25.3,99,89,72,30.08,29.52,18,9,27,0.03
2013-2-27,32.1,32.1,32.0,31.9,31.8,31.8,99,99,99,29.54,29.52,1,0,3,0.00
2013-3-13,28.8,27.0,24.7,22.8,18.9,16.5,80,71,64,30.39,30.23,10,4,21,0.00
2013-3-14,39.6,33.7,24.0,29.6,21.1,15.3,89,61,40,30.39,30.21,14,8,19,0.00
2013-3-15,45.5,37.0,29.8,40.7,33.9,28.3,97,89,71,30.21,29.85,10,6,24,0.31
2013-3-16,40.6,34.8,28.9,39.5,33.1,24.4,99,94,81,30.16,29.70,15,7,19,0.00
2013-3-17,35.7,30.0,27.9,24.7,23.2,21.0,84,76,59,30.28,30.14,10,6,17,0.00
2013-3-18,34.7,30.8,27.4,33.9,28.6,22.1,98,92,77,30.14,29.64,26,9,28,0.02
2013-3-19,33.2,26.4,20.4,22.2,16.7,13.3,81,67,53,30.13,29.84,27,19,45,0.07
2013-3-20,28.4,24.0,18.4,17.8,14.0,9.2,89,65,50,30.13,30.06,16,6,27,0.00
2013-3-21,32.6,22.7,13.9,20.1,16.0,11.1,90,76,52,30.12,30.05,13,4,20,0.00
2013-3-22,40.4,29.5,19.8,22.3,18.7,16.8,88,66,40,30.15,30.06,11,4,16,0.00
2013-3-23,37.7,30.4,24.0,25.7,22.9,18.0,89,74,59,30.20,30.07,13,5,23,0.00
2013-3-24,34.8,30.9,26.8,28.0,25.1,23.7,93,79,65,30.08,29.65,21,11,29,0.00
2013-3-25,35.4,31.1,27.3,30.0,27.7,26.2,96,87,71,30.06,29.65,20,9,25,0.01
2013-3-26,40.7,34.4,30.9,33.0,29.2,25.8,93,82,61,30.29,30.06,8,2,18,0.01
2013-3-27,41.9,35.2,30.9,33.3,27.5,21.4,91,75,49,30.37,30.28,9,3,20,0.00
2013-3-28,48.8,38.1,27.9,27.9,23.6,20.9,75,57,39,30.41,30.34,8,3,14,0.00
2013-3-29,51.6,38.4,29.8,28.8,25.8,21.5,87,63,36,30.39,30.30,8,2,15,0.00
2013-3-30,53.8,47.6,31.6,35.4,29.9,19.1,61,50,42,30.30,29.98,11,6,19,0.00
2013-3-31,59.1,48.7,37.4,44.2,36.4,29.9,98,65,35,29.98,29.72,21,8,32,0.00
2013-4-1,38.5,33.8,26.3,30.2,20.7,14.4,81,60,40,30.22,29.86,13,3,20,0.00
2013-4-2,41.8,31.2,23.4,22.4,16.8,8.9,80,58,27,30.33,30.22,11,4,27,0.00
2013-4-3,44.5,40.2,33.6,24.0,12.8,8.5,63,33,24,30.51,30.41,11,4,20,0.00
2013-4-4,33.5,31.7,29.0,18.3,15.8,13.1,62,52,43,30.41,30.31,7,3,10,0.00
2013-4-5,51.3,45.0,36.9,30.2,24.6,16.1,75,47,25,30.22,30.15,15,9,22,0.00
2013-4-6,64.9,53.7,37.2,39.8,31.6,24.1,60,44,34,30.23,29.78,24,16,33,0.00
2013-4-7,62.4,54.5,45.0,47.0,41.8,35.6,86,64,44,30.02,29.72,24,10,44,0.08
2013-4-8,71.2,53.9,43.4,57.6,45.0,35.2,93,73,49,30.03,29.77,31,9,40,0.25
2013-4-9,76.2,60.9,46.1,60.6,51.4,43.3,91,72,51,30.05,29.86,24,9,32,0.02
2013-4-10,60.4,50.8,44.7,55.3,48.9,43.7,98,93,83,29.95,29.84,19,7,23,0.34
2013-4-11,45.1,42.8,39.8,44.4,42.4,39.5,99,99,97,29.99,29.64,16,7,29,1.08
2013-4-12,42.1,39.3,37.2,41.1,36.0,30.6,99,88,73,29.92,29.64,22,12,34,0.10
2013-4-13,42.5,38.5,33.2,35.0,32.0,27.9,94,78,59,30.06,29.92,18,10,30,0.01
2013-4-14,61.5,48.2,38.2,48.6,40.4,32.5,91,75,61,30.11,29.86,12,6,20,0.00
2013-4-15,64.0,59.0,54.0,56.7,51.6,45.6,90,77,68,29.95,29.85,21,10,25,0.00
2013-4-16,57.2,47.9,42.9,54.6,42.2,36.0,98,82,56,30.28,29.93,13,5,18,0.59
2013-4-17,54.2,49.0,44.4,48.4,43.1,37.6,98,81,72,30.31,29.97,26,8,29,0.84
2013-4-18,71.2,58.3,45.0,65.4,56.7,43.8,99,95,82,29.96,29.55,23,12,42,1.51
2013-4-19,59.5,38.9,34.0,59.2,34.8,29.8,99,85,74,29.93,29.53,28,17,40,1.01
2013-4-20,42.7,36.4,31.5,30.8,25.4,19.2,92,66,41,30.52,29.93,16,6,24,0.00
2013-4-21,49.6,39.3,29.1,31.8,24.9,18.6,74,57,40,30.64,30.47,11,5,15,0.00
2013-4-22,62.2,49.7,34.6,38.1,32.5,26.5,83,55,30,30.47,30.17,10,5,15,0.00
2013-4-23,66.7,54.6,48.3,55.2,44.9,37.5,95,71,52,30.17,29.90,22,8,40,0.19
2013-4-24,44.6,39.7,35.3,35.4,31.9,26.6,93,75,50,30.24,29.92,14,6,25,0.44
2013-4-25,50.2,44.1,37.9,37.7,33.2,26.9,83,66,42,30.42,30.19,19,7,28,0.00
2013-4-26,60.8,49.5,38.3,39.8,34.5,28.9,71,57,41,30.48,30.37,13,8,18,0.00
2013-4-27,66.7,56.9,45.7,48.0,38.8,31.8,69,52,31,30.39,30.08,13,6,21,0.00
2013-4-28,58.4,55.1,51.2,55.8,52.5,48.2,97,91,69,30.08,29.86,8,2,11,0.19
2013-4-29,68.2,59.9,52.0,57.0,53.5,51.6,99,81,58,30.00,29.91,14,7,17,0.00
2013-4-30,77.7,66.5,55.2,61.4,56.2,51.1,86,71,55,30.03,29.93,18,13,23,0.00
2013-5-1,81.1,72.0,61.9,57.4,54.6,52.1,73,56,38,30.19,30.03,13,7,20,0.00
2013-5-2,78.4,70.2,61.8,56.8,54.6,51.3,77,59,41,30.20,30.08,12,6,20,0.00
2013-5-3,75.4,65.3,50.6,59.6,52.9,47.5,91,67,45,30.10,29.96,13,6,21,0.00
2013-5-4,72.0,65.2,59.2,48.0,43.6,36.2,60,46,28,30.04,29.98,11,7,20,0.00
2013-5-5,69.4,62.1,52.1,49.1,45.6,41.1,70,55,44,30.05,30.00,12,5,19,0.00
2013-5-6,72.5,63.0,54.3,54.5,45.1,-99.9,70,54,43,30.04,29.97,9,-10,15,0.00
2013-5-7,73.9,64.8,53.0,54.6,51.0,48.3,85,63,42,30.06,29.99,9,4,18,0.00
2013-5-8,77.3,65.2,53.1,58.3,48.5,-99.9,86,59,42,30.06,29.97,9,-20,13,0.08
2013-5-9,80.4,65.8,53.8,57.8,52.7,46.7,90,65,32,30.01,29.90,17,4,18,0.04
2013-5-10,65.2,54.4,44.7,60.6,44.4,-99.9,96,83,73,29.95,29.80,15,-54,24,0.52
2013-5-11,55.8,44.3,40.0,52.0,36.1,-99.9,97,83,62,30.05,29.87,17,-39,32,0.11
2013-5-12,51.3,43.4,35.9,35.4,31.3,26.9,87,64,40,30.18,30.05,8,4,20,0.00
2013-5-13,59.2,48.6,35.1,36.0,28.5,17.2,93,51,20,30.24,30.15,11,3,19,0.00
2013-5-14,86.8,67.0,50.8,61.1,43.8,26.0,64,44,25,30.14,29.74,19,10,28,0.00
2013-5-15,84.5,75.6,66.0,61.5,54.2,47.6,70,49,29,29.83,29.69,25,10,29,0.02
2013-5-16,81.0,71.8,55.5,54.8,45.5,38.7,85,43,23,30.00,29.83,7,3,17,0.00
2013-5-17,81.0,68.8,56.3,61.7,50.1,42.6,84,53,33,30.09,29.99,16,5,18,0.00
2013-5-18,78.1,62.8,56.5,60.2,38.1,-99.9,68,51,50,30.13,30.00,10,-97,15,0.00
2013-5-19,84.7,73.4,60.0,64.4,58.5,49.9,71,60,48,30.03,29.84,10,4,19,0.00
2013-5-20,75.0,72.8,70.7,70.0,66.5,64.0,91,81,69,29.90,29.84,11,9,16,0.00
2013-5-21,82.2,75.5,64.7,65.5,63.4,60.6,95,68,49,29.81,29.72,20,10,32,0.27
2013-5-22,75.3,69.1,64.2,64.8,63.1,58.4,93,82,61,29.77,29.67,19,9,30,0.11
2013-5-23,64.6,54.5,45.4,58.9,52.3,42.9,97,92,81,30.23,29.76,12,6,19,0.17
2013-5-24,59.5,49.2,39.1,43.2,39.0,34.8,95,71,41,30.43,30.23,13,6,20,0.00
2013-5-25,65.5,53.7,39.9,46.9,40.8,36.9,94,65,39,30.44,30.30,5,2,10,0.00
2013-5-26,69.4,59.4,47.6,50.4,42.1,38.0,86,55,35,30.36,30.21,11,4,17,0.00
2013-5-27,61.7,56.1,49.7,58.5,51.7,41.1,99,86,49,30.23,29.94,10,5,20,0.88
2013-5-28,78.4,70.2,57.7,70.0,65.8,57.4,100,87,74,29.96,29.84,18,9,29,0.40
2013-5-29,82.5,74.2,64.7,69.6,65.5,61.6,92,75,58,30.01,29.89,14,9,23,0.09
2013-5-30,84.3,77.1,70.7,71.1,66.7,63.5,81,71,56,30.04,29.91,21,10,28,0.02
2013-5-31,76.2,68.3,-90.0,69.8,63.7,-99.9,98,87,76,29.98,29.84,17,0,28,1.14
2013-6-1,72.5,68.1,62.7,67.1,64.8,62.7,100,90,77,29.89,29.74,17,9,32,1.28
2013-6-2,67.3,59.7,46.7,62.3,55.1,42.4,95,85,72,30.06,29.74,15,7,22,0.00
2013-6-3,66.0,54.7,43.7,50.7,44.6,42.2,97,72,45,30.15,30.06,9,4,14,0.00
2013-6-4,72.8,62.1,48.6,50.8,47.8,45.3,89,62,40,30.21,30.13,7,3,13,0.00
2013-6-5,74.8,66.3,56.3,55.4,49.3,42.1,63,55,43,30.15,29.94,7,4,13,0.00
2013-6-6,74.0,64.8,58.5,57.0,50.6,41.0,81,61,43,29.97,29.84,16,7,22,0.00
2013-6-7,62.0,58.0,55.4,56.2,54.7,53.5,94,89,80,29.93,29.89,6,4,12,0.00
2013-6-10,76.6,69.2,64.3,67.8,65.0,62.6,99,87,64,29.87,29.77,14,6,23,1.13
2013-6-11,82.3,70.5,60.8,68.6,64.7,60.8,100,84,55,29.97,29.86,13,4,20,0.00
2013-6-12,85.5,74.5,66.6,77.0,70.7,65.7,100,88,72,29.93,29.60,15,4,20,2.18
2013-6-13,75.5,67.0,58.5,67.2,57.3,-99.9,100,75,48,30.01,29.50,18,-3,23,0.19
2013-6-14,78.4,65.9,54.5,62.1,57.7,53.7,98,77,46,30.13,30.00,8,3,13,0.00
2013-6-15,64.4,61.6,60.0,60.5,59.5,58.7,96,93,87,30.10,30.07,1,0,2,0.00
2013-6-19,76.2,70.0,57.8,58.7,53.0,46.7,78,55,44,30.18,30.10,6,2,8,0.00
2013-6-20,81.7,71.5,59.6,67.0,60.8,53.7,83,70,56,30.22,30.14,5,2,9,0.00
2013-6-21,85.7,76.3,69.2,67.8,63.6,60.0,89,66,43,30.20,29.98,21,6,27,0.00
2013-6-22,86.3,75.2,69.4,76.6,69.8,65.9,91,83,68,30.12,30.00,13,6,19,0.05
2013-6-23,85.5,75.7,67.1,72.5,68.5,65.5,96,80,55,30.10,30.00,14,7,23,0.03
2013-6-24,83.8,74.5,66.0,72.7,68.8,64.4,98,84,61,30.11,29.95,27,8,37,0.21
2013-6-25,86.8,76.0,67.6,76.8,70.8,65.7,97,85,63,30.01,29.82,18,7,28,0.00
2013-6-26,79.9,70.7,64.8,75.1,68.8,64.2,100,94,82,29.94,29.75,16,4,26,2.90
2013-6-27,85.4,74.1,66.6,74.6,70.1,65.0,100,89,63,29.80,29.68,12,3,19,0.23
2013-6-28,80.6,72.7,65.3,68.8,65.3,61.2,99,80,54,29.70,29.60,9,3,17,0.01
2013-6-29,74.4,65.8,61.6,66.3,63.6,59.1,100,93,74,29.74,29.58,17,3,29,0.14
2013-6-30,75.7,67.2,61.8,64.7,62.5,60.2,100,86,62,29.95,29.74,11,7,19,0.67
2013-7-1,74.1,64.7,58.7,63.3,57.8,51.1,91,79,66,30.06,29.95,14,7,22,0.01
2013-7-2,67.1,62.6,57.1,66.0,60.1,54.1,100,92,71,30.07,30.02,10,6,14,0.03
2013-7-3,76.7,70.0,64.6,68.1,65.6,63.4,100,87,66,30.11,30.03,13,5,19,0.04
2013-7-4,77.4,69.5,62.5,67.0,63.7,60.8,100,83,60,30.17,30.09,4,2,6,0.00
2013-7-5,82.2,73.2,64.4,72.5,67.4,63.5,99,83,63,30.14,30.06,7,2,12,0.00
2013-7-6,76.1,71.9,68.4,71.9,69.0,66.4,98,91,81,30.12,30.02,10,4,13,0.00
2013-7-7,80.8,73.3,65.9,73.3,69.6,65.6,100,89,74,30.08,30.00,10,6,16,0.00
2013-7-8,81.1,75.4,70.5,76.2,71.6,68.7,97,88,78,30.09,29.98,13,7,20,0.12
2013-7-9,85.8,79.0,73.2,78.1,75.4,72.7,99,89,73,30.03,29.91,14,7,22,0.01
2013-7-10,81.0,74.6,63.0,77.4,70.8,57.8,100,88,65,30.01,29.84,28,7,31,0.99
2013-7-11,62.9,61.8,60.9,58.6,57.9,57.3,89,87,85,30.02,30.00,3,1,5,0.00
2013-7-16,90.9,85.8,78.0,75.9,73.2,70.8,84,67,54,30.30,30.27,6,3,11,0.00
2013-7-17,90.6,82.5,72.6,77.2,73.7,70.5,95,76,58,30.34,30.19,8,3,12,0.00
2013-7-18,90.9,82.6,73.7,77.7,74.6,72.0,95,78,58,30.21,30.00,11,5,15,0.00
2013-7-19,90.5,82.9,75.9,78.1,75.3,73.6,93,79,60,30.01,29.80,17,9,27,0.01
2013-7-20,88.1,79.9,71.3,75.7,70.0,63.3,100,74,45,29.93,29.78,23,5,23,0.41
2013-7-21,85.3,75.5,64.1,70.6,66.6,62.3,95,75,53,29.99,29.89,6,2,10,0.00
2013-7-22,83.6,72.8,65.6,70.6,67.8,65.2,100,85,60,29.92,29.78,11,4,15,1.62
2013-7-23,81.0,71.0,58.0,70.0,63.8,-99.9,98,82,63,29.94,29.74,17,2,24,0.14
2013-7-24,71.1,61.4,51.2,58.8,53.4,49.2,94,77,54,30.08,29.94,10,5,15,0.00
2013-7-25,77.3,66.1,54.9,61.6,56.2,52.6,98,73,44,30.15,30.07,7,2,8,0.00
2013-7-26,75.3,68.1,60.6,63.9,60.1,56.2,87,76,62,30.12,29.93,10,5,17,0.00
2013-7-27,73.4,66.0,56.0,65.3,60.5,51.4,97,83,66,29.94,29.84,10,4,14,0.05
2013-7-28,67.0,58.5,51.2,54.5,51.5,48.7,92,78,57,30.06,29.91,14,6,24,0.01
2013-7-29,73.3,62.8,53.0,60.2,55.3,50.1,91,77,59,30.22,30.06,10,4,17,0.00
2013-7-30,75.0,66.5,57.1,64.1,59.8,55.2,97,80,59,30.25,30.13,6,2,9,0.00
2013-7-31,70.8,66.8,64.2,69.1,65.2,62.2,99,95,82,30.13,29.96,7,3,11,0.18
2013-8-1,78.9,68.8,61.3,69.0,61.1,55.3,100,79,46,30.01,29.96,7,2,19,0.21
2013-8-2,79.1,64.0,58.9,72.1,60.5,-99.9,99,90,75,30.03,29.86,13,-5,24,4.11
2013-8-3,78.1,68.4,60.9,68.5,61.5,52.3,100,81,47,30.11,29.96,11,3,19,0.01
2013-8-4,75.5,64.6,54.6,59.8,55.6,52.4,97,74,47,30.22,30.11,10,3,17,0.00
2013-8-5,73.7,65.4,56.3,63.8,58.6,52.5,93,79,66,30.17,29.97,9,3,12,0.00
2013-8-6,77.0,69.8,61.8,70.9,66.1,60.6,97,88,78,29.98,29.91,8,5,14,0.17
2013-8-7,82.9,73.4,68.3,74.6,70.6,66.3,100,91,74,29.93,29.85,10,5,24,0.10
2013-8-8,76.6,70.0,64.8,69.9,67.0,63.9,100,90,77,30.01,29.93,9,4,16,0.01
2013-8-9,81.4,70.9,62.1,67.1,63.4,60.0,96,79,50,30.05,29.97,7,2,10,0.00
2013-8-10,80.4,72.0,65.7,70.7,65.7,61.1,96,81,61,30.13,30.05,10,3,14,0.00
2013-8-11,80.8,70.8,59.4,67.2,62.0,58.4,97,76,49,30.15,30.07,6,2,11,0.00
2013-8-12,81.6,72.5,64.4,71.7,65.9,62.0,97,80,62,30.10,29.87,11,5,20,0.29
2013-8-13,69.0,62.3,53.9,64.8,55.5,48.6,99,80,51,30.15,29.91,14,6,21,0.01
2013-8-14,69.0,57.6,47.5,55.3,49.5,45.4,94,76,50,30.25,30.15,11,3,17,0.00
2013-8-15,74.7,64.5,49.3,59.5,53.0,47.6,96,68,47,30.22,30.15,3,1,6,0.00
2013-8-16,75.3,66.0,56.5,60.4,57.0,53.4,97,75,48,30.22,30.17,6,2,10,0.00
2013-8-17,76.0,66.5,55.8,61.8,57.7,54.8,99,76,50,30.28,30.20,6,2,10,0.00
2013-8-18,82.5,69.0,55.7,66.6,60.0,54.6,96,75,48,30.24,30.13,4,2,7,0.00
2013-8-19,83.3,71.9,61.2,68.0,62.5,59.0,94,74,51,30.16,30.07,7,2,13,0.00
2013-8-20,82.7,76.6,64.8,68.7,66.2,62.7,93,72,54,30.18,30.10,7,3,13,0.00
2013-8-21,84.9,76.1,67.7,71.9,67.8,65.0,92,76,56,30.16,30.02,9,5,17,0.00
2013-8-22,75.7,70.9,67.1,71.3,68.3,66.2,99,92,84,30.13,29.99,11,4,14,0.29
2013-8-23,78.7,69.6,64.2,69.1,63.4,55.0,100,83,46,30.20,30.10,7,4,13,0.00
2013-8-24,64.8,61.8,58.3,57.8,56.3,55.1,89,82,77,30.25,30.20,3,1,4,0.00
2013-8-28,84.9,80.5,73.9,76.4,72.9,68.2,86,78,68,29.98,29.88,10,6,17,0.00
2013-8-29,87.4,78.8,64.5,74.0,69.7,64.5,100,76,53,30.09,30.01,3,2,8,0.00
2013-8-30,87.8,80.5,68.1,74.9,71.5,65.9,95,75,60,29.99,29.76,17,6,22,0.00
2013-8-31,79.2,74.0,69.7,74.2,71.2,68.4,98,91,77,29.87,29.76,8,3,17,0.05
2013-9-1,81.6,72.4,66.1,72.4,69.6,65.8,100,92,72,29.83,29.76,8,3,13,0.01
2013-9-2,79.7,70.6,57.3,70.0,63.5,54.4,99,80,48,29.99,29.76,15,6,20,0.00
2013-9-3,74.5,62.2,51.3,58.6,55.0,49.7,97,79,53,30.10,29.98,8,2,14,0.00
2013-9-4,80.3,67.0,55.2,61.4,56.7,53.7,98,73,44,30.16,30.08,10,4,18,0.00
2013-9-5,76.8,65.9,57.3,57.8,52.6,46.2,92,65,35,30.27,30.14,9,4,13,0.00
2013-9-6,78.5,65.9,51.7,60.2,52.7,47.2,87,64,40,30.29,30.09,9,3,12,0.00
2013-9-7,86.8,73.0,62.5,68.7,62.3,55.3,87,70,43,30.09,29.93,11,5,17,0.00
2013-9-8,73.8,70.2,64.8,68.7,66.0,62.9,97,87,77,30.05,29.95,10,4,15,0.00
2013-9-9,89.0,74.4,63.2,74.3,66.5,56.5,91,77,59,30.04,29.89,10,5,15,0.00
2013-9-10,94.3,83.4,73.8,73.9,69.8,63.8,93,67,37,30.06,29.93,15,7,23,0.00
2013-9-11,92.8,80.2,71.3,72.0,69.6,64.1,94,73,40,30.08,29.95,16,7,28,0.00
2013-9-12,82.8,71.0,59.1,69.9,61.9,53.2,99,76,40,30.03,29.87,18,5,25,0.63
2013-9-13,64.4,56.2,48.9,53.3,45.9,40.3,87,70,45,30.18,30.04,14,8,22,0.00
2013-9-14,68.0,54.6,40.5,50.1,42.2,38.8,98,67,36,30.26,30.13,7,2,11,0.00
2013-9-15,66.2,58.5,52.2,57.9,48.9,41.2,95,71,58,30.15,30.04,8,4,11,0.09
2013-9-16,66.0,59.5,51.4,55.6,51.1,47.5,98,75,54,30.37,30.28,8,5,14,0.00
2013-9-17,67.5,57.2,45.3,53.1,48.7,44.1,96,75,54,30.41,30.22,6,3,12,0.00
2013-9-18,77.9,66.6,55.5,63.3,55.6,48.0,88,69,49,30.22,30.02,9,4,14,0.00
2013-9-19,71.3,67.4,64.8,69.3,66.4,63.1,99,97,82,30.07,29.90,14,5,23,1.99
2013-9-20,73.2,70.3,64.4,70.9,67.2,60.4,98,90,83,29.88,29.79,14,7,25,0.01
2013-9-21,67.9,59.5,51.5,60.2,52.5,47.4,98,79,51,29.94,29.77,14,5,23,0.05
2013-9-22,63.9,55.7,47.1,51.5,47.2,43.9,93,75,49,30.10,29.94,12,4,17,0.00
2013-9-23,65.7,53.6,40.9,49.5,45.6,40.1,97,76,53,30.19,30.10,8,3,12,0.00
2013-9-24,67.1,56.3,45.6,50.2,47.2,43.7,94,73,51,30.15,30.00,7,3,11,0.00
2013-9-25,71.3,59.4,48.2,55.1,51.0,47.4,98,76,46,30.02,29.96,5,3,10,0.00
2013-9-26,76.4,61.6,48.9,57.4,50.5,45.2,99,71,34,30.14,30.00,6,3,10,0.00
2013-9-27,76.5,64.3,49.7,55.8,50.6,43.3,87,62,44,30.23,30.14,7,3,9,0.00
2013-9-28,79.9,66.6,54.2,57.7,54.4,51.6,92,68,40,30.19,30.01,12,6,15,0.00
2013-9-29,69.1,61.8,52.6,60.7,53.3,-99.9,97,78,57,30.03,29.98,9,-14,11,0.15
2013-9-30,70.2,57.8,44.7,58.3,52.9,44.2,99,85,60,30.07,29.97,11,3,14,0.01
2013-10-1,73.2,64.3,59.1,64.0,61.1,55.6,100,90,72,30.06,29.98,11,6,21,0.00
2013-10-2,81.5,70.7,62.5,67.9,65.2,61.9,99,84,59,30.12,30.02,10,4,12,0.00
2013-10-3,77.3,68.9,64.4,70.5,66.1,61.1,99,91,71,30.05,29.93,16,5,26,0.78
2013-10-4,80.0,71.4,65.3,71.5,67.7,63.3,94,88,74,30.03,29.96,10,4,16,0.39
2013-10-5,74.0,69.2,65.5,72.2,68.2,65.3,100,97,89,30.02,29.85,22,6,24,0.92
2013-10-6,67.6,59.6,47.1,67.6,56.2,41.6,100,89,66,29.88,29.73,16,7,26,0.39
2013-10-7,60.9,50.5,43.1,49.6,44.5,41.0,95,81,58,30.17,29.81,16,7,27,0.00
2013-10-8,70.8,58.2,46.6,52.5,48.1,44.5,96,71,47,30.29,30.17,10,6,15,0.00
2013-10-9,69.9,58.2,44.4,51.1,46.1,42.3,94,66,41,30.32,30.21,6,3,11,0.00
2013-10-10,72.6,60.5,49.2,53.1,47.9,45.2,89,65,42,30.24,30.13,4,2,9,0.00
2013-10-11,59.1,55.1,53.1,47.1,46.4,45.3,80,73,61,30.13,30.11,3,2,4,0.00
2013-10-15,64.9,63.1,61.5,61.8,60.6,57.9,97,92,86,29.99,29.88,12,9,19,0.05
2013-10-16,62.8,51.6,45.8,61.3,47.6,43.5,95,86,80,30.00,29.89,16,8,23,0.00
2013-10-17,51.0,48.1,43.3,47.7,45.4,41.4,95,90,82,29.99,29.87,14,6,24,0.02
2013-10-18,60.7,47.5,41.1,47.3,41.8,39.1,94,82,55,30.03,29.94,18,8,27,0.00
2013-10-19,52.2,45.2,41.3,42.3,38.4,33.0,97,79,49,30.00,29.86,17,7,28,0.18
2013-10-20,62.5,50.9,40.7,44.9,40.6,36.6,86,69,49,29.99,29.87,14,9,26,0.00
2013-10-21,55.6,49.0,37.5,47.3,41.3,28.4,88,75,65,30.00,29.89,15,9,26,0.00
2013-10-22,47.6,36.8,31.0,34.5,28.9,21.5,96,75,37,30.06,29.97,11,6,19,0.06
2013-10-23,43.1,37.6,32.6,38.8,33.7,28.7,98,87,59,30.08,29.92,6,2,14,0.01
2013-10-24,43.7,36.7,30.7,34.2,30.9,27.6,91,80,64,30.33,30.06,15,5,19,0.00
2013-10-25,47.6,38.3,29.0,34.1,28.0,25.4,91,68,43,30.46,30.23,12,6,22,0.00
2013-10-26,54.9,44.1,38.6,39.2,32.9,27.7,81,65,52,30.22,29.90,22,10,37,0.00
2013-10-27,53.6,43.3,32.5,35.9,31.6,29.6,91,66,41,30.15,30.07,12,5,22,0.00
2013-10-28,59.3,45.7,36.9,39.5,34.3,30.0,88,66,44,30.40,30.12,6,2,8,0.00
2013-10-29,53.9,46.9,34.6,41.9,39.7,32.2,91,77,61,30.45,30.25,9,3,10,0.00
2013-10-30,61.5,52.9,42.3,61.5,49.2,39.4,100,87,74,30.26,29.92,11,4,17,0.16
2013-10-31,63.4,59.3,51.6,63.4,58.5,-99.9,100,99,99,29.92,29.27,20,4,34,1.28
2013-11-1,51.4,47.4,44.4,51.4,44.2,40.7,100,89,72,29.77,29.33,20,12,34,0.07
2013-11-2,49.9,44.5,41.5,44.7,42.1,38.1,97,91,79,30.15,29.76,10,5,22,0.05
2013-11-3,47.7,42.6,38.7,40.3,38.5,36.1,96,86,69,30.41,30.15,6,3,12,0.00
2013-11-4,52.9,45.8,37.8,43.3,38.4,34.9,90,76,61,30.43,30.29,15,8,25,0.00
2013-11-5,55.8,52.4,49.3,49.6,45.6,43.2,89,78,69,30.39,30.14,14,8,20,0.00
2013-11-6,57.3,50.8,41.3,53.3,45.4,-99.9,97,86,65,30.14,29.88,19,2,30,0.31
2013-11-7,45.5,39.4,32.8,38.4,32.0,25.3,89,76,47,30.30,30.12,16,7,29,0.00
2013-11-8,46.2,38.3,29.3,33.7,31.3,28.3,96,77,57,30.40,30.19,12,6,16,0.00
2013-11-9,59.9,49.8,42.9,43.1,37.0,31.3,77,62,47,30.19,29.94,23,15,39,0.00
2013-11-10,46.0,40.5,35.7,39.0,31.6,27.7,82,71,58,30.37,30.08,18,6,27,0.00
2013-11-11,46.5,38.6,28.7,39.8,32.5,21.7,97,79,66,30.45,30.14,21,10,27,0.16
2013-11-12,33.7,27.6,21.9,28.1,22.1,18.6,88,80,68,30.69,30.45,10,4,18,0.00
2013-11-13,36.3,27.8,19.2,22.1,19.4,16.6,90,72,50,30.68,30.34,15,10,26,0.00
2013-11-14,50.6,40.4,30.2,27.1,24.0,21.0,71,53,33,30.34,30.09,18,12,27,0.00
2013-11-15,51.2,44.7,39.9,34.0,29.5,25.5,67,55,45,30.12,30.05,13,8,18,0.00
2013-11-16,58.2,49.8,40.9,56.7,46.6,33.1,95,89,68,30.08,29.77,22,15,29,0.08
2013-11-17,63.1,57.0,45.1,61.6,54.2,39.0,99,91,75,29.77,29.29,32,17,59,1.35
2013-11-18,44.7,39.5,35.5,38.7,33.6,28.4,90,80,68,30.26,29.73,20,9,35,0.00
2013-11-19,41.5,36.1,32.2,30.4,28.4,26.4,85,74,58,30.42,30.26,12,3,14,0.00
2013-11-20,43.7,36.5,29.0,34.8,29.3,25.2,86,75,63,30.43,30.23,12,6,19,0.00
2013-11-21,46.6,44.9,41.6,46.3,41.8,34.8,99,89,71,30.31,30.22,14,6,19,0.67
2013-11-22,46.4,39.6,29.3,46.1,38.1,27.2,100,94,86,30.49,30.21,17,5,29,0.02
2013-11-23,30.6,24.8,17.5,27.3,20.5,13.8,93,84,65,30.69,30.43,15,7,27,0.01
2013-11-24,25.5,19.4,14.3,17.8,13.7,8.1,94,79,58,30.76,30.55,13,5,22,0.00
2013-11-25,30.2,25.3,18.6,25.9,17.7,9.3,91,73,61,30.55,30.22,16,10,25,0.00
2013-11-26,31.2,28.6,26.9,25.9,25.4,24.2,90,88,81,30.22,30.13,11,6,19,0.00
2013-11-27,25.7,23.9,21.4,23.3,20.4,16.7,92,86,76,30.33,30.13,11,5,19,0.00
2013-11-28,32.7,25.4,20.9,23.2,17.8,15.0,80,73,57,30.53,30.30,12,5,19,0.00
2013-11-29,37.2,30.3,25.0,23.8,21.8,19.7,84,71,54,30.72,30.53,8,3,11,0.00
2013-11-30,47.7,37.3,29.8,33.0,27.6,22.4,80,69,53,30.56,30.17,15,9,23,0.00
2013-12-1,45.0,37.2,30.8,38.2,30.9,27.1,87,78,62,30.17,30.06,8,3,12,0.00
2013-12-2,36.4,33.0,28.9,32.2,30.2,27.0,95,89,82,30.06,29.90,7,3,10,0.03
2013-12-3,48.6,41.3,33.5,46.7,40.0,32.2,97,95,92,29.90,29.80,10,6,14,0.12
2013-12-4,59.7,51.3,45.2,57.4,50.2,44.1,100,96,91,29.86,29.65,15,9,21,0.00
2013-12-5,59.6,35.3,25.6,57.0,30.7,20.0,92,83,77,30.27,29.67,20,12,30,0.01
2013-12-6,27.4,25.7,22.9,22.6,20.3,15.2,86,80,72,30.52,30.24,9,3,15,0.00
2013-12-7,24.6,19.3,14.7,17.3,13.7,11.3,89,79,64,30.72,30.52,11,3,17,0.00
2013-12-8,25.7,21.2,15.2,24.7,17.1,12.1,96,84,70,30.65,30.06,11,6,19,0.00
2013-12-9,27.5,21.9,13.7,26.2,17.8,5.7,96,84,69,30.28,30.01,22,12,33,0.00
2013-12-10,22.9,13.7,1.9,13.9,6.4,-2.8,82,73,62,30.39,30.15,24,11,36,0.00
2013-12-11,23.6,16.5,7.3,19.8,11.7,1.9,92,81,68,30.60,30.38,10,5,19,0.00
2013-12-12,20.2,10.3,-3.9,12.2,3.2,-7.8,84,73,56,30.63,30.37,17,10,29,0.00
2013-12-13,32.5,21.8,13.4,25.1,15.2,7.4,95,76,54,30.37,30.22,10,4,14,0.00
2013-12-14,26.2,23.8,20.1,25.1,22.6,18.1,96,95,92,30.25,29.90,11,7,16,0.00
2013-12-15,24.9,16.1,8.5,23.2,12.8,4.9,94,87,77,30.20,29.98,18,9,26,0.00
2013-12-16,20.2,14.9,8.7,16.3,11.6,5.4,94,87,75,30.27,30.11,8,3,11,0.00
2013-12-17,27.0,20.9,16.5,25.2,19.3,15.1,95,93,87,30.16,30.04,17,9,24,0.00
2013-12-18,34.9,22.1,14.4,24.3,16.2,11.8,92,79,63,30.30,30.00,19,9,26,0.00
2013-12-19,44.5,40.1,35.0,41.5,34.9,24.4,94,82,65,30.05,29.90,19,10,24,0.01
2013-12-20,51.3,44.6,39.7,51.3,44.1,39.7,100,98,89,29.90,29.74,14,6,17,0.25
2013-12-21,39.3,34.3,32.7,39.3,34.3,32.7,100,100,100,29.88,29.57,15,6,29,1.20
2013-12-22,34.9,33.1,30.1,34.9,33.1,29.6,100,100,98,30.11,29.52,18,8,30,0.17
2013-12-23,30.1,24.5,20.9,29.6,17.2,-99.9,98,87,83,30.42,30.11,16,-35,26,0.00
2013-12-24,17.5,11.5,1.8,13.0,7.6,-1.7,89,84,78,30.66,30.57,11,6,26,0.00
2013-12-25,25.8,22.0,16.0,24.8,18.6,12.8,96,87,81,30.56,30.19,16,9,19,0.00
2013-12-26,32.3,25.5,17.4,27.3,21.5,14.4,97,85,73,30.39,30.17,18,10,28,0.00
2013-12-27,40.4,35.1,28.6,33.6,30.3,26.3,91,83,75,30.40,30.21,16,9,25,0.00
2013-12-28,47.5,40.6,35.0,37.7,33.7,31.1,87,77,66,30.22,29.96,16,11,31,0.00
2013-12-29,40.6,33.7,22.7,33.9,28.4,19.8,93,81,66,30.14,29.83,12,6,18,0.00
2013-12-30,22.6,18.0,13.4,19.6,12.8,8.8,88,80,68,30.36,30.14,10,5,17,0.00
2013-12-31,15.4,13.0,7.4,13.2,9.4,4.3,92,85,74,30.46,30.24,13,7,25,0.00
2014-1-1,19.7,16.7,13.2,16.5,14.4,11.1,93,91,86,30.41,30.23,12,7,16,0.00
2014-1-2,13.5,11.5,1.4,11.6,7.8,-3.9,92,85,71,30.46,30.13,21,12,29,0.00